seed: p2v3s18

Total games: 209


  • Filter by # of Players
  • Filter by Score
  • Filter by Variant



ID # of Players Score Variant Date & Time Players
53012 2 30 Rainbow (6 Suits) 2019-09-03 — 00:38:33 UTC csq, greggythebear
100209 2 30 Rainbow (6 Suits) 2020-03-28 — 21:11:03 UTC ArcheNoah, Sunny_Hanabi
153087 2 30 Rainbow (6 Suits) 2020-05-05 — 15:50:23 UTC alicia_atsg, robj
163259 2 30 Rainbow (6 Suits) 2020-05-12 — 18:24:51 UTC Ch1cken, frollo9386
252698 2 30 Rainbow (6 Suits) 2020-07-27 — 04:25:07 UTC anhnguyen, Starhobo07
266249 2 30 Rainbow (6 Suits) 2020-08-09 — 15:12:04 UTC eljobe, VerySloppyTwo
288331 2 30 Rainbow (6 Suits) 2020-09-03 — 23:12:52 UTC johnboy81918, Stephzheng
302780 2 30 Rainbow (6 Suits) 2020-09-21 — 00:38:19 UTC hu.man01, Stradguy1
306706 2 30 Rainbow (6 Suits) 2020-09-26 — 06:24:06 UTC gsherm, timt
324297 2 30 Rainbow (6 Suits) 2020-10-20 — 05:19:33 UTC Chad.Cor, chadhealy
355074 2 30 Rainbow (6 Suits) 2020-11-27 — 13:43:52 UTC hallo2020, jule_2000
375396 2 30 Rainbow (6 Suits) 2020-12-19 — 03:52:05 UTC jarhill0, JoeyExotic
379496 2 30 Rainbow (6 Suits) 2020-12-23 — 04:21:21 UTC Laure, Shazaaaaam
398914 2 30 Rainbow (6 Suits) 2021-01-10 — 07:01:39 UTC Cold, Shad_Crow
460074 2 30 Rainbow (6 Suits) 2021-03-07 — 13:24:36 UTC marvolo2, vidakdk
478634 2 30 Rainbow (6 Suits) 2021-03-24 — 02:27:42 UTC hambrenson, veganpecan
498765 2 30 Rainbow (6 Suits) 2021-04-12 — 19:29:52 UTC BasH, Blaster---
503872 2 30 Rainbow (6 Suits) 2021-04-17 — 04:30:28 UTC Frozen_Animal, Macs_girl
510469 2 30 Rainbow (6 Suits) 2021-04-23 — 19:43:14 UTC boobailey808, Mustang949
517746 2 30 Rainbow (6 Suits) 2021-05-01 — 15:35:57 UTC itchy, tactical
524028 2 30 Rainbow (6 Suits) 2021-05-08 — 08:28:59 UTC FizzyLizzy123, Ignasis
589919 2 30 Rainbow (6 Suits) 2021-07-15 — 19:31:26 UTC dingyue, jc123432
596152 2 30 Rainbow (6 Suits) 2021-07-26 — 02:39:55 UTC IsabeltheCat, kappatosity
9542 2 29 Rainbow (6 Suits) 2018-08-14 — 23:45:54 UTC efemural, jean
11386 2 29 Rainbow (6 Suits) 2018-10-04 — 23:07:27 UTC Andrew_UK, scharkbite
44065 2 29 Rainbow (6 Suits) 2019-07-01 — 21:34:59 UTC Göttertöter, Sharklah
388127 2 29 Rainbow (6 Suits) 2020-12-31 — 08:50:43 UTC boba, Etherealz
487359 2 29 Rainbow (6 Suits) 2021-04-01 — 13:14:07 UTC Durandal, HelanaAshryvr
566383 2 29 Rainbow (6 Suits) 2021-06-17 — 22:13:01 UTC eoehlsen, tantum1
166481 2 28 Rainbow (6 Suits) 2020-05-15 — 03:32:57 UTC mayala, uclabb
176308 2 28 Rainbow (6 Suits) 2020-05-22 — 04:45:17 UTC muddy, Olorin
192799 2 28 Rainbow (6 Suits) 2020-06-03 — 18:23:54 UTC Isa, pixieawa
233097 2 28 Rainbow (6 Suits) 2020-07-08 — 10:19:39 UTC Barthe, roosmariej
287809 2 28 Rainbow (6 Suits) 2020-09-03 — 05:30:22 UTC Aharon, eliyahoo
344035 2 28 Rainbow (6 Suits) 2020-11-15 — 07:07:51 UTC mmk1, rpbd
27806 2 27 Rainbow (6 Suits) 2019-04-05 — 06:46:12 UTC lh, Sh
112009 2 27 Rainbow (6 Suits) 2020-04-06 — 23:32:14 UTC Axineld, rfrank27
114285 2 27 Rainbow (6 Suits) 2020-04-08 — 21:26:11 UTC ceciliadevita, ianrostagno
124984 2 27 Rainbow (6 Suits) 2020-04-17 — 03:38:33 UTC choonabi, ClandestineClue
130476 2 27 Rainbow (6 Suits) 2020-04-20 — 12:45:31 UTC Fey, robense
146001 2 27 Rainbow (6 Suits) 2020-05-01 — 04:01:42 UTC jalmenda, zmill415
152889 2 27 Rainbow (6 Suits) 2020-05-05 — 07:33:22 UTC Crivens, miriamattia
158362 2 27 Rainbow (6 Suits) 2020-05-09 — 07:34:32 UTC antitelharsic, Littleinvad
215496 2 27 Rainbow (6 Suits) 2020-06-22 — 23:58:40 UTC mirza, shhh
219710 2 27 Rainbow (6 Suits) 2020-06-26 — 21:23:29 UTC dramos, glauberdlg
226791 2 27 Rainbow (6 Suits) 2020-07-02 — 17:45:42 UTC higamel, Maestra
232709 2 27 Rainbow (6 Suits) 2020-07-08 — 00:42:17 UTC budabloom, mindabloom
249124 2 27 Rainbow (6 Suits) 2020-07-23 — 22:56:41 UTC gaboross, Otyika
267784 2 27 Rainbow (6 Suits) 2020-08-11 — 03:23:19 UTC JustusR, Yoshi
289421 2 27 Rainbow (6 Suits) 2020-09-05 — 02:16:53 UTC Bprrg, toddskinner
445709 2 27 Rainbow (6 Suits) 2021-02-22 — 19:01:18 UTC danielshaun, EricSean
454716 2 27 Rainbow (6 Suits) 2021-03-03 — 00:42:15 UTC gsug, ohughes
464645 2 27 Rainbow (6 Suits) 2021-03-11 — 15:20:13 UTC LauraMietz, Nico123
465837 2 27 Rainbow (6 Suits) 2021-03-12 — 20:18:09 UTC Alex1992, DoraEs
493952 2 27 Rainbow (6 Suits) 2021-04-08 — 12:22:50 UTC BRH2020, Rabbeetroot
560154 2 27 Rainbow (6 Suits) 2021-06-12 — 04:04:38 UTC MMage, rainboy
128075 2 26 Rainbow (6 Suits) 2020-04-19 — 01:50:51 UTC benwake, Cornflake62
131711 2 26 Rainbow (6 Suits) 2020-04-21 — 12:43:00 UTC anne.so, tohel71
201609 2 26 Rainbow (6 Suits) 2020-06-10 — 19:16:08 UTC Ewan, Willoughby
216165 2 26 Rainbow (6 Suits) 2020-06-23 — 17:59:41 UTC clspencer, sjforion
296523 2 26 Rainbow (6 Suits) 2020-09-13 — 05:11:00 UTC atlas, pbody
311878 2 26 Rainbow (6 Suits) 2020-10-03 — 15:12:33 UTC lvlotiejus52, motiejus52
531696 2 26 Rainbow (6 Suits) 2021-05-16 — 13:18:15 UTC Pete2, Pugsister1
578743 2 26 Rainbow (6 Suits) 2021-06-30 — 20:35:35 UTC Frozen_Animal_, Macs_girl_
612956 2 26 Rainbow (6 Suits) 2021-08-23 — 01:18:52 UTC HanabOfficial, Pipipipi
15828 2 25 Rainbow (6 Suits) 2018-12-28 — 21:17:22 UTC demochi, pepsicola
118528 2 25 Rainbow (6 Suits) 2020-04-12 — 03:04:35 UTC dewey, liwei
171699 2 25 Rainbow (6 Suits) 2020-05-18 — 14:10:28 UTC callistooooo, newacc
178848 2 25 Rainbow (6 Suits) 2020-05-24 — 00:30:17 UTC cdmcfarland, davidgokhman
186606 2 25 Rainbow (6 Suits) 2020-05-29 — 20:52:56 UTC mmv, tneerukonda
227417 2 25 Rainbow (6 Suits) 2020-07-03 — 01:41:09 UTC danguskhan, jaycanplay
241743 2 25 Rainbow (6 Suits) 2020-07-16 — 18:34:10 UTC aewyna, Shinja
255291 2 25 Rainbow (6 Suits) 2020-07-29 — 15:16:36 UTC mirthe, Vincenthart
296172 2 25 Rainbow (6 Suits) 2020-09-12 — 22:24:52 UTC Bjuuti, markus1
302057 2 25 Rainbow (6 Suits) 2020-09-20 — 03:16:35 UTC mmsieth, Samantha
420557 2 25 Rainbow (6 Suits) 2021-01-31 — 03:19:24 UTC n21, other
447926 2 25 Rainbow (6 Suits) 2021-02-24 — 19:55:26 UTC gubs, mumbai
480036 2 25 Rainbow (6 Suits) 2021-03-25 — 11:55:10 UTC explorerus., raphaeleon
502050 2 25 Rainbow (6 Suits) 2021-04-15 — 18:54:42 UTC safd, Stavfx
80563 2 24 Rainbow (6 Suits) 2020-02-17 — 18:43:22 UTC iggy2foots, logiciain
87010 2 24 Rainbow (6 Suits) 2020-03-11 — 02:00:12 UTC bmann, emdog
144584 2 24 Rainbow (6 Suits) 2020-04-30 — 05:33:55 UTC WadeYao, YYF
167956 2 24 Rainbow (6 Suits) 2020-05-16 — 04:14:33 UTC Crivens_Temp, eliyahu
256249 2 24 Rainbow (6 Suits) 2020-07-30 — 15:12:30 UTC Lee3, RickSanchez
274966 2 24 Rainbow (6 Suits) 2020-08-19 — 05:35:21 UTC melodyw, premc
298489 2 24 Rainbow (6 Suits) 2020-09-15 — 23:47:35 UTC erinselene, Ota
299447 2 24 Rainbow (6 Suits) 2020-09-17 — 04:06:05 UTC heftych1, kimgannon
417610 2 24 Rainbow (6 Suits) 2021-01-28 — 15:48:03 UTC lcflorencelo, slyrk
438233 2 24 Rainbow (6 Suits) 2021-02-15 — 18:35:21 UTC Junkrat, QP
549868 2 24 Rainbow (6 Suits) 2021-06-04 — 15:48:29 UTC JonathanHicks, sole.garcia
581217 2 24 Rainbow (6 Suits) 2021-07-03 — 21:54:56 UTC Aroma1997, EsorX
617406 2 24 Rainbow (6 Suits) 2021-08-29 — 21:12:43 UTC MrSheep, tc2020
129058 2 23 Rainbow (6 Suits) 2020-04-19 — 17:01:21 UTC bornagy, nandu13
309343 2 23 Rainbow (6 Suits) 2020-09-30 — 00:19:22 UTC BobbyK, jmcatamney
317582 2 23 Rainbow (6 Suits) 2020-10-10 — 22:26:07 UTC elsring, missporbothe1st
614605 2 23 Rainbow (6 Suits) 2021-08-25 — 14:29:22 UTC ombrien, Sonea
119664 2 22 Rainbow (6 Suits) 2020-04-12 — 21:46:33 UTC mglanzer, rfrank
330644 2 22 Rainbow (6 Suits) 2020-10-29 — 21:29:42 UTC eMeRGeD, lorenzo1
373331 2 22 Rainbow (6 Suits) 2020-12-17 — 01:52:11 UTC mdubz, tossevent
627428 2 21 Rainbow (6 Suits) 2021-09-16 — 03:50:41 UTC meowgli2, thelma
4207 2 0 Rainbow (6 Suits) 2018-03-19 — 00:37:39 UTC florrat2, NotRaKXeR
5404 2 0 Rainbow (6 Suits) 2018-04-21 — 19:46:32 UTC Libster, Zamiel
9418 2 0 Rainbow (6 Suits) 2018-08-11 — 11:04:41 UTC dchoi44, kalmasi
20143 2 0 Rainbow (6 Suits) 2019-02-15 — 22:40:12 UTC Feer, zerlick
36533 2 0 Rainbow (6 Suits) 2019-05-09 — 03:33:46 UTC becksgl, comfyc
43219 2 0 Rainbow (6 Suits) 2019-06-26 — 02:57:37 UTC Emily, J3enjamin
55769 2 0 Rainbow (6 Suits) 2019-09-21 — 01:47:42 UTC dragonskitty, Hrusk
55932 2 0 Rainbow (6 Suits) 2019-09-22 — 16:38:04 UTC hbjornoy, heddav
62429 2 0 Rainbow (6 Suits) 2019-11-02 — 23:01:58 UTC fivefives, jwngr
64172 2 0 Rainbow (6 Suits) 2019-11-12 — 10:04:47 UTC asaelr, Dr_Kakashi
68604 2 0 Rainbow (6 Suits) 2019-12-04 — 06:14:50 UTC Artificial, jba7
79005 2 0 Rainbow (6 Suits) 2020-02-11 — 19:06:32 UTC RaKXeR, sankala fan
79587 2 0 Rainbow (6 Suits) 2020-02-12 — 20:52:48 UTC fh_monday, fr
91510 2 0 Rainbow (6 Suits) 2020-03-18 — 21:06:59 UTC kawsn13, Nigr
92436 2 0 Rainbow (6 Suits) 2020-03-20 — 02:43:52 UTC antizoubilamaka, link825
93464 2 0 Rainbow (6 Suits) 2020-03-21 — 18:51:50 UTC hu.mab, Stradguy
95099 2 0 Rainbow (6 Suits) 2020-03-23 — 13:24:48 UTC anto.mazzo, mauro
102104 2 0 Rainbow (6 Suits) 2020-03-30 — 01:29:01 UTC hellococo, math444
111762 2 0 Rainbow (6 Suits) 2020-04-06 — 21:02:18 UTC bfichera, brami
115795 2 0 Rainbow (6 Suits) 2020-04-10 — 17:20:12 UTC Joost, Thomas1234
116226 2 0 Rainbow (6 Suits) 2020-04-10 — 22:20:26 UTC khushi, neerav
118554 2 0 Rainbow (6 Suits) 2020-04-12 — 03:19:50 UTC btownshend, raphtown
119102 2 0 Rainbow (6 Suits) 2020-04-12 — 15:51:21 UTC lrovner, maxnorris13
124423 2 0 Rainbow (6 Suits) 2020-04-16 — 20:12:33 UTC Fedorov, geor1983
130528 2 0 Rainbow (6 Suits) 2020-04-20 — 14:23:21 UTC Hawlucha, mperera
132212 2 0 Rainbow (6 Suits) 2020-04-21 — 21:24:02 UTC alanpotato, Roroast
135448 2 0 Rainbow (6 Suits) 2020-04-24 — 06:01:45 UTC Rick, RickIsNotMe
142830 2 0 Rainbow (6 Suits) 2020-04-29 — 01:31:13 UTC opurtell, pfinley
143067 2 0 Rainbow (6 Suits) 2020-04-29 — 03:49:01 UTC Dilshaad, Dimithi
145920 2 0 Rainbow (6 Suits) 2020-05-01 — 03:13:21 UTC itsbilal, paperairplane69
149801 2 0 Rainbow (6 Suits) 2020-05-03 — 06:46:18 UTC oatmilk, sundried_tomato
152003 2 0 Rainbow (6 Suits) 2020-05-04 — 19:53:13 UTC Allemoor, Kilkame
157972 2 0 Rainbow (6 Suits) 2020-05-09 — 03:24:04 UTC Brownp, dcrawford
162689 2 0 Rainbow (6 Suits) 2020-05-12 — 03:56:23 UTC clayt, kitcat
163935 2 0 Rainbow (6 Suits) 2020-05-13 — 03:55:05 UTC annieboboh, penguin69
164218 2 0 Rainbow (6 Suits) 2020-05-13 — 10:51:06 UTC Guamo, larki
172526 2 0 Rainbow (6 Suits) 2020-05-19 — 04:37:37 UTC baozi, moontwist11
174627 2 0 Rainbow (6 Suits) 2020-05-21 — 00:36:32 UTC TheDaniMan, wshin0104
177539 2 0 Rainbow (6 Suits) 2020-05-23 — 03:03:33 UTC Bageer, beanstalk
180463 2 0 Rainbow (6 Suits) 2020-05-25 — 00:41:20 UTC Emilie_, smallman
183646 2 0 Rainbow (6 Suits) 2020-05-27 — 13:31:48 UTC Anaïs, Lissange
184505 2 0 Rainbow (6 Suits) 2020-05-28 — 04:11:34 UTC buxtehude11, yee claw
199676 2 0 Rainbow (6 Suits) 2020-06-09 — 01:56:45 UTC mfl, vmplays
201842 2 0 Rainbow (6 Suits) 2020-06-10 — 22:12:20 UTC pokgai1, seefut
201903 2 0 Rainbow (6 Suits) 2020-06-10 — 23:25:05 UTC RespectCaviar, schemetrical
213409 2 0 Rainbow (6 Suits) 2020-06-20 — 23:08:26 UTC kawol, SEKs
214276 2 0 Rainbow (6 Suits) 2020-06-21 — 18:50:40 UTC adik, oldgreg
217195 2 0 Rainbow (6 Suits) 2020-06-24 — 13:53:24 UTC Fuuut, Reinier
230147 2 0 Rainbow (6 Suits) 2020-07-05 — 13:57:43 UTC jons14, L1
234006 2 0 Rainbow (6 Suits) 2020-07-09 — 05:50:17 UTC aridante, nostalgiccat
238887 2 0 Rainbow (6 Suits) 2020-07-14 — 04:12:02 UTC julian5, Laura17
249887 2 0 Rainbow (6 Suits) 2020-07-24 — 18:28:18 UTC higamy, Magnissico
267375 2 0 Rainbow (6 Suits) 2020-08-10 — 19:09:57 UTC gwenwhyfar, meeree
284367 2 0 Rainbow (6 Suits) 2020-08-30 — 03:38:06 UTC evieisbad, ijs
295396 2 0 Rainbow (6 Suits) 2020-09-12 — 03:36:05 UTC mbluewolverine, Ornamentalist
296131 2 0 Rainbow (6 Suits) 2020-09-12 — 21:33:17 UTC helicopter, ichaelm
301705 2 0 Rainbow (6 Suits) 2020-09-19 — 20:28:22 UTC adi1, anusha2
305627 2 0 Rainbow (6 Suits) 2020-09-24 — 22:40:19 UTC gracia5180, harikari.live
310790 2 0 Rainbow (6 Suits) 2020-10-02 — 02:35:34 UTC BlueNovember, Pantheia
318356 2 0 Rainbow (6 Suits) 2020-10-11 — 22:49:12 UTC etyg, klshen
322207 2 0 Rainbow (6 Suits) 2020-10-17 — 13:47:21 UTC pescerosso, rea
328285 2 0 Rainbow (6 Suits) 2020-10-25 — 23:17:11 UTC coachamera, jasmine
348278 2 0 Rainbow (6 Suits) 2020-11-20 — 01:48:01 UTC anser, william65537
348358 2 0 Rainbow (6 Suits) 2020-11-20 — 03:20:42 UTC mrpoopybutthole, Mrspoopy
350424 2 0 Rainbow (6 Suits) 2020-11-22 — 04:17:36 UTC maryplantthomas, philipgerstoft
360080 2 0 Rainbow (6 Suits) 2020-12-04 — 00:09:25 UTC Jake_Stiles, rz
367194 2 0 Rainbow (6 Suits) 2020-12-11 — 00:19:53 UTC KitKat13, torp
368776 2 0 Rainbow (6 Suits) 2020-12-12 — 09:28:14 UTC Alchemist75, victorywys
369367 2 0 Rainbow (6 Suits) 2020-12-13 — 00:37:57 UTC LdeAmorin, Matías_V5
372203 2 0 Rainbow (6 Suits) 2020-12-15 — 22:22:03 UTC oatty, sunflower
384778 2 0 Rainbow (6 Suits) 2020-12-28 — 06:13:48 UTC Dawit, Neema
392925 2 0 Rainbow (6 Suits) 2021-01-05 — 02:08:56 UTC boodles100, sleibson
397353 2 0 Rainbow (6 Suits) 2021-01-09 — 03:09:26 UTC FrozenAnimal, Macsgirl
398924 2 0 Rainbow (6 Suits) 2021-01-10 — 07:10:25 UTC howlcity, socerman
407302 2 0 Rainbow (6 Suits) 2021-01-18 — 10:37:35 UTC i421, yotamamir
408191 2 0 Rainbow (6 Suits) 2021-01-19 — 02:56:02 UTC glend, tacobot5000
409870 2 0 Rainbow (6 Suits) 2021-01-20 — 20:30:05 UTC ajsehifowha, dunes1
416554 2 0 Rainbow (6 Suits) 2021-01-27 — 18:43:42 UTC john120283, princeton
428750 2 0 Rainbow (6 Suits) 2021-02-07 — 06:40:15 UTC babapest, mestrepoke
435529 2 0 Rainbow (6 Suits) 2021-02-13 — 07:08:31 UTC Lampz, Mage
437058 2 0 Rainbow (6 Suits) 2021-02-14 — 17:36:04 UTC paari, peponenazionale
440955 2 0 Rainbow (6 Suits) 2021-02-18 — 17:59:59 UTC aesophsfables, shocksteel
445529 2 0 Rainbow (6 Suits) 2021-02-22 — 15:35:56 UTC macanek, need4speed
447226 2 0 Rainbow (6 Suits) 2021-02-24 — 00:33:11 UTC Redbeard124, SmolAngel
449606 2 0 Rainbow (6 Suits) 2021-02-26 — 05:00:03 UTC bockers, Meghan1234567
452192 2 0 Rainbow (6 Suits) 2021-02-28 — 20:16:58 UTC J.Ole, RayW
462237 2 0 Rainbow (6 Suits) 2021-03-09 — 07:05:48 UTC Aluap, chinichile
472686 2 0 Rainbow (6 Suits) 2021-03-18 — 20:32:54 UTC enkimdu, Ritz1974
472783 2 0 Rainbow (6 Suits) 2021-03-18 — 21:33:26 UTC JoostM, Jorrit12345
473658 2 0 Rainbow (6 Suits) 2021-03-19 — 17:08:04 UTC Footscrayzy, Noble
487727 2 0 Rainbow (6 Suits) 2021-04-01 — 21:18:25 UTC andybergon, saraquarantine
489425 2 0 Rainbow (6 Suits) 2021-04-03 — 16:23:12 UTC SuperKaczor, wygrywamalbonie
501900 2 0 Rainbow (6 Suits) 2021-04-15 — 16:42:18 UTC ATrueZen, dj.narayanan
521820 2 0 Rainbow (6 Suits) 2021-05-06 — 02:17:01 UTC boggle, Scarlet
527836 2 0 Rainbow (6 Suits) 2021-05-12 — 15:18:15 UTC MarieX, Theklaj
528153 2 0 Rainbow (6 Suits) 2021-05-12 — 22:32:01 UTC Wheatie, wifeofwheatie
535199 2 0 Rainbow (6 Suits) 2021-05-20 — 01:32:25 UTC jean_franc_bleu, loohye
549900 2 0 Rainbow (6 Suits) 2021-06-04 — 16:26:09 UTC infinity00, zetty0817
557255 2 0 Rainbow (6 Suits) 2021-06-09 — 18:41:31 UTC Sadret, Zilvarro
562781 2 0 Rainbow (6 Suits) 2021-06-14 — 17:57:30 UTC asdfasdfasdA, Helllooooooo
571885 2 0 Rainbow (6 Suits) 2021-06-24 — 09:51:05 UTC Polymath, sen88
576047 2 0 Rainbow (6 Suits) 2021-06-28 — 01:35:40 UTC Offset, SpinTop
585604 2 0 Rainbow (6 Suits) 2021-07-09 — 21:23:03 UTC livelikediv, vaibhavram
603681 2 0 Rainbow (6 Suits) 2021-08-07 — 12:31:48 UTC Lel0uch, melwen
610790 2 0 Rainbow (6 Suits) 2021-08-19 — 21:30:53 UTC Charles123123, wardsux1
617326 2 0 Rainbow (6 Suits) 2021-08-29 — 18:16:13 UTC randomguy, y..y
618928 2 0 Rainbow (6 Suits) 2021-09-01 — 08:24:27 UTC AJNOLAN95, DaVeryGoodWaaan
619130 2 0 Rainbow (6 Suits) 2021-09-01 — 19:08:26 UTC asdasdasda, JTJTJTJTJT
628457 2 0 Rainbow (6 Suits) 2021-09-18 — 01:30:49 UTC butterflydem2, Notgolfing